Wetbulb
51.71 50.51 50.19 49.77 49.70 50.22 50.45 50.52 50.79 50.88 50.88 50.93 51.07 51.31 51.43 51.71 52.16 52.47 53.45 53.67 53.73 54.00 54.12 54.54 54.57 54.65 49.85 38.94 38.78 44.13 56.24 52.02 44.52 46.79 43.72 42.62 41.23 39.69 36.09 37.27 38.99 36.60 38.35 40.56 41.01 40.21 40.31
50.62 50.13 50.08 49.73 49.73 50.03 50.33 50.42 50.51 50.72 50.80 50.91 51.35 51.82 51.78 51.73 52.03 52.35 53.32 53.64 53.93 53.81 54.24 54.31 54.65 54.75 44.29 34.41 43.69 42.77 43.44 43.44 42.39 41.50 41.94 42.83 41.03 41.88 39.17 38.20 36.21 39.24 39.54 38.86 40.16 39.60 39.56
50.47 50.25 50.09 49.65 49.78 50.02 50.15 50.10 50.36 50.70 50.78 51.31 52.02 52.35 52.33 51.92 52.17 52.50 53.28 53.28 53.40 53.50 53.97 54.03 54.57 53.19 39.42 37.39 40.96 41.48 43.01 40.68 40.95 41.13 39.94 42.55 44.50 41.75 40.08 38.60 41.73 40.85 36.55 37.84 37.59 38.61 37.85
50.30 50.49 50.08 49.73 49.80 49.78 49.91 50.01 50.10 50.61 51.12 51.32 51.49 52.70 52.49 51.91 51.70 51.97 52.57 52.95 53.24 53.89 54.56 54.94 55.28 46.49 36.65 44.09 41.55 42.10 41.06 41.28 43.45 43.10 41.91 42.08 45.13 41.85 39.42 40.63 39.04 35.59 34.25 30.08 36.14 38.76 39.99
50.65 50.42 50.06 49.91 49.74 49.76 49.89 49.99 50.16 50.66 51.12 51.81 52.26 52.51 51.86 51.32 51.03 51.04 51.47 51.97 52.74 53.91 54.28 54.02 47.03 39.25 34.95 48.08 40.91 41.56 39.91 40.59 42.08 42.39 42.37 45.61 43.54 38.53 37.09 32.30 29.32 29.33 24.42 28.51 31.91 37.16 36.23
50.43 50.34 50.29 49.80 49.89 49.88 49.83 49.97 50.20 50.86 51.65 52.24 52.51 52.22 51.84 51.28 50.65 50.88 51.11 51.61 51.81 50.96 50.73 51.17 46.94 37.29 39.51 37.73 40.63 41.87 42.79 42.40 39.74 39.40 38.16 36.60 32.55 29.09 27.63 26.62 18.90 23.40 23.52 23.06 24.70 32.72 33.46
50.33 50.34 50.02 49.92 49.73 49.71 49.70 49.84 50.29 51.28 51.86 52.09 51.89 51.76 51.43 51.51 51.06 49.84 46.64 46.45 39.34 37.15 39.49 36.60 37.05 37.74 38.51 39.80 42.26 40.35 41.49 40.60 39.21 35.81 29.27 32.40 27.92 23.59 26.63 28.24 29.34 27.95 25.54 24.02 26.39 32.78 31.38
50.31 50.02 49.92 49.59 49.49 49.73 49.72 49.94 50.98 51.53 51.38 50.61 50.44 50.46 50.48 50.44 50.35 50.34 45.43 42.86 43.91 38.89 33.01 40.25 40.47 39.54 41.69 40.31 37.15 39.01 41.15 36.24 35.47 29.57 31.71 27.64 25.45 30.11 32.70 31.88 29.82 28.08 25.43 24.14 27.97 32.79 31.27
49.83 49.58 49.30 49.35 49.35 49.61 49.87 50.28 51.49 51.23 50.21 50.39 50.06 49.46 49.44 49.40 49.20 45.93 43.23 42.17 48.16 44.25 32.70 38.05 40.73 39.89 39.44 40.25 35.67 36.07 38.64 35.71 32.97 31.53 29.66 25.37 29.81 35.63 33.67 30.41 29.37 26.30 25.78 25.83 26.20 29.44 27.74
49.40 49.21 49.12 49.27 49.12 49.45 49.75 50.24 51.19 50.73 49.37 49.71 50.13 50.62 49.32 48.32 45.56 43.87 40.33 45.54 46.46 46.35 27.45 34.76 37.00 39.79 41.21 39.70 35.84 39.27 39.48 36.28 34.83 30.80 32.31 29.74 35.07 33.95 31.16 29.90 30.18 23.58 31.01 30.61 28.56 24.37 18.08
48.76 48.99 49.21 49.38 49.54 49.69 50.09 50.41 50.62 50.24 50.04 50.54 50.83 50.60 49.99 47.96 40.12 42.24 45.34 47.25 46.01 45.29 14.27 36.21 37.17 43.83 41.83 36.39 36.50 38.83 42.73 38.49 31.76 32.68 32.12 29.29 30.75 30.59 29.40 30.75 33.31 28.46 33.64 30.47 28.92 23.26 21.15
48.82 49.08 49.46 49.80 49.80 50.15 50.29 50.09 50.20 50.17 50.37 50.75 50.69 50.45 49.88 45.36 42.39 44.81 48.06 48.21 45.85 27.29 10.86 34.15 38.28 37.04 36.72 37.78 36.87 38.79 38.75 40.17 38.29 33.24 33.51 31.62 35.14 33.95 32.59 34.75 34.42 35.19 31.05 29.22 27.21 22.91 15.54
48.70 49.18 49.64 49.96 50.07 50.30 50.31 50.11 49.84 50.00 50.33 50.45 49.60 49.32 48.04 48.36 40.46 47.28 48.39 43.90 25.32 15.27 35.47 32.07 33.49 36.79 35.67 34.17 35.42 35.10 33.45 31.15 26.78 23.39 23.69 28.78 31.55 34.37 36.23 30.48 32.75 30.57 24.82 13.64 12.44 12.71 14.13
48.82 49.45 49.77 49.90 50.20 50.18 50.26 50.08 49.90 49.84 50.12 50.22 49.58 48.25 47.03 47.02 44.74 44.65 44.09 30.60 13.65 30.33 32.27 37.39 36.33 36.17 32.69 34.31 33.01 33.33 31.19 26.89 31.12 29.21 23.35 20.31 20.08 30.28 33.90 30.36 27.32 27.44 25.40 16.44 11.92 12.78 16.47
49.17 49.34 49.48 49.70 49.91 50.14 50.16 50.09 49.99 49.95 50.12 49.71 47.38 42.78 43.04 44.82 46.64 44.74 34.82 19.66 21.74 31.01 35.25 34.52 35.27 32.44 31.23 33.38 32.49 31.11 29.21 28.21 29.50 31.36 23.81 22.45 24.05 32.91 32.34 32.59 29.74 26.36 22.55 29.63 21.84 22.61 16.83
49.06 49.15 49.56 49.87 49.90 49.83 49.78 49.79 49.80 50.00 48.41 47.65 36.75 40.04 40.41 45.28 46.96 40.04 30.44 28.51 30.54 37.16 37.45 36.64 30.35 32.57 26.26 29.37 29.10 28.78 28.62 31.02 31.07 34.12 33.01 29.57 24.83 29.59 30.11 30.66 29.51 27.76 31.91 22.10 19.21 10.45 13.58
49.07 49.25 49.47 49.82 49.71 49.57 49.65 49.56 49.52 49.27 48.73 48.03 38.42 36.61 40.98 46.49 43.64 34.64 23.28 27.67 34.64 39.14 39.13 35.49 32.81 31.09 30.90 29.15 29.60 27.91 29.44 32.31 34.33 32.86 32.80 30.76 26.00 22.27 26.69 22.45 18.74 21.69 21.24 25.69 27.25 24.60 17.80
49.39 49.55 49.59 49.67 49.55 49.37 49.33 49.33 48.91 47.73 48.16 42.72 37.42 28.69 40.43 43.83 32.37 28.05 26.14 34.14 39.30 37.65 39.76 38.10 36.50 34.29 31.35 30.95 28.62 28.24 28.55 32.04 36.47 33.45 28.28 30.47 26.26 17.95 20.45 26.33 28.03 25.16 22.91 25.43 23.08 17.50 20.21
48.98 49.17 49.33 49.30 49.17 48.90 48.82 48.68 47.77 47.80 46.13 37.98 35.62 34.20 42.56 40.51 23.55 23.88 31.81 35.04 36.81 35.83 35.71 35.67 34.74 35.39 35.33 29.10 26.18 29.81 32.17 37.63 37.33 34.52 29.78 29.22 22.63 17.77 20.05 19.97 22.66 17.05 23.33 24.54 26.86 23.77 14.16
48.91 48.92 49.01 48.86 48.71 48.66 48.28 47.91 47.93 47.70 47.70 39.81 33.16 28.03 34.29 35.33 32.68 30.03 30.08 31.75 32.60 38.15 36.98 37.57 35.95 37.20 35.30 31.34 31.74 27.46 29.36 35.32 37.93 35.08 36.55 30.65 21.30 12.46 7.76 9.97 14.40 13.59 20.60 22.67 21.27 15.84 14.63
48.59 48.50 48.47 48.40 48.30 48.17 47.76 47.91 47.68 47.80 47.91 40.59 34.10 30.37 33.59 25.91 29.73 31.40 32.47 34.07 32.28 32.19 37.13 36.56 34.57 33.70 32.42 28.51 28.49 27.80 30.27 31.72 36.18 37.41 32.85 25.31 13.03 17.59 12.56 21.31 23.14 21.95 20.15 21.07 19.32 19.76 14.16
48.65 48.45 48.12 48.09 48.03 47.49 47.53 47.85 47.61 47.80 47.98 40.87 33.25 32.83 33.59 31.48 34.54 32.48 32.02 30.01 32.08 33.82 33.86 31.55 30.80 34.60 33.06 27.72 28.71 25.65 29.32 28.11 26.45 34.81 30.43 29.08 17.70 18.00 17.01 24.24 23.55 20.35 22.05 22.48 22.04 20.43 19.62
48.67 48.35 48.05 48.17 48.21 47.83 47.34 46.89 47.45 48.32 46.34 37.57 38.13 39.11 35.43 31.40 30.04 29.16 28.63 32.22 34.04 35.23 35.97 36.55 34.63 31.92 31.50 32.60 35.04 34.44 34.32 32.95 31.05 29.29 31.77 26.65 21.28 19.77 15.76 23.78 24.04 16.56 18.06 21.66 21.29 22.58 13.73
48.27 48.47 48.35 48.34 48.48 48.53 48.22 48.34 48.60 49.16 45.65 41.96 41.47 37.44 31.65 26.71 29.65 30.40 35.02 35.33 34.75 34.72 31.89 35.78 35.72 31.65 35.64 39.08 38.73 37.63 37.48 36.11 32.61 31.19 32.74 26.25 23.94 27.71 17.70 21.79 4.92 16.25 22.89 24.37 22.90 21.33 20.92
47.89 48.17 48.56 48.38 48.27 48.25 48.22 48.58 48.70 49.36 49.46 44.21 43.24 37.93 32.70 26.36 31.92 34.72 35.54 34.10 34.91 35.16 33.34 34.02 36.47 37.58 38.67 35.26 31.09 31.91 28.91 31.51 28.71 30.36 28.57 30.06 25.58 15.47 12.45 15.36 15.44 22.08 21.31 21.15 23.05 17.96 21.64
47.57 47.88 48.20 48.14 47.92 48.05 48.08 48.55 48.64 49.39 50.16 43.60 41.55 42.20 36.13 28.56 28.66 36.40 33.97 34.11 29.81 28.48 30.93 34.11 38.31 39.03 37.50 32.74 28.95 20.22 14.47 24.65 20.86 25.00 29.51 29.46 25.86 16.75 11.60 8.28 0.54 14.13 22.38 31.31 27.96 17.73 28.25
47.06 47.46 47.59 47.72 47.72 47.82 48.14 48.32 48.42 49.15 49.58 44.18 42.30 40.74 36.41 28.49 33.07 34.00 31.09 30.79 34.78 31.95 28.20 30.88 33.45 34.75 36.48 27.28 20.93 19.54 18.38 26.03 14.81 10.13 12.14 21.53 18.96 10.97 12.26 12.18 16.15 19.45 26.28 32.11 16.59 16.53 27.05
46.46 46.76 46.96 47.25 47.35 47.67 47.92 48.29 48.48 48.74 48.40 43.57 40.34 40.50 37.23 30.88 32.78 37.20 38.02 32.35 34.10 32.35 27.61 31.12 31.71 31.90 29.29 25.38 22.47 19.84 19.87 20.07 17.66 15.10 9.12 11.92 11.77 9.65 15.48 9.38 5.82 27.40 29.83 18.99 23.69 29.56 31.14
45.97 46.38 46.64 46.92 47.22 47.36 47.74 47.81 48.66 49.19 48.72 45.26 38.64 42.87 41.28 34.07 34.06 38.40 38.35 38.99 38.72 38.63 33.14 32.40 30.64 30.87 29.48 24.79 24.84 23.87 22.56 20.55 22.19 11.45 25.49 13.13 14.67 13.36 12.41 10.58 19.28 25.97 23.19 30.23 32.35 31.82 32.04
MSLP
1020.19 1020.73 1020.87 1021.22 1021.25 1021.09 1021.19 1021.12 1020.86 1020.74 1020.64 1020.41 1020.23 1020.02 1019.92 1019.84 1019.80 1019.45 1019.22 1019.16 1018.90 1018.67 1018.58 1018.61 1018.46 1018.22 1017.98 1017.95 1017.76 1016.82 1016.16 1015.64 1015.10 1014.98 1015.21 1015.26 1015.32 1015.33 1015.46 1015.40 1015.01 1014.70 1014.52 1013.89 1013.17 1012.58 1012.08
1020.39 1020.89 1020.97 1021.22 1021.16 1021.08 1021.06 1021.01 1020.86 1020.81 1020.51 1020.31 1020.16 1020.10 1019.90 1019.96 1019.75 1019.35 1019.11 1018.87 1018.76 1018.54 1018.40 1018.35 1018.25 1018.14 1017.81 1018.07 1017.28 1016.89 1016.36 1015.82 1015.53 1015.39 1015.25 1015.25 1015.38 1015.32 1015.57 1015.60 1015.67 1015.25 1014.80 1014.19 1013.35 1012.91 1012.32
1020.64 1020.99 1021.05 1021.32 1021.22 1021.13 1021.03 1021.00 1020.85 1020.69 1020.51 1020.35 1020.21 1020.00 1020.02 1019.83 1019.48 1019.22 1019.05 1018.84 1018.66 1018.51 1018.32 1018.19 1018.12 1017.88 1017.66 1017.92 1017.50 1016.94 1016.45 1016.18 1015.75 1015.55 1015.43 1015.11 1015.06 1015.49 1015.88 1015.91 1015.64 1015.50 1015.32 1014.60 1014.06 1013.46 1012.97
1020.78 1021.04 1021.07 1021.32 1021.19 1021.13 1021.01 1020.99 1020.85 1020.68 1020.52 1020.38 1020.19 1020.07 1019.94 1019.59 1019.35 1019.15 1018.92 1018.78 1018.54 1018.35 1018.17 1018.07 1018.06 1017.84 1018.03 1017.34 1017.31 1017.10 1016.70 1016.13 1015.42 1015.09 1015.12 1015.03 1015.02 1015.57 1016.05 1016.24 1016.31 1016.64 1016.41 1016.30 1015.20 1014.71 1013.83
1020.87 1021.01 1021.07 1021.20 1021.13 1021.08 1021.01 1020.96 1020.87 1020.68 1020.52 1020.43 1020.18 1019.99 1019.82 1019.55 1019.24 1018.94 1018.71 1018.49 1018.22 1017.91 1017.76 1017.70 1017.96 1017.79 1018.24 1017.47 1017.53 1017.30 1017.05 1016.80 1015.83 1015.26 1015.07 1014.96 1015.47 1016.64 1017.30 1017.93 1018.32 1018.85 1018.97 1018.38 1017.17 1016.34 1015.95
1020.99 1021.10 1021.18 1021.22 1021.13 1021.06 1021.01 1020.96 1020.85 1020.73 1020.52 1020.36 1020.10 1019.98 1019.91 1019.68 1019.24 1018.88 1018.50 1018.16 1017.81 1017.58 1017.41 1017.39 1017.60 1018.19 1018.29 1018.33 1018.00 1017.71 1016.92 1016.84 1016.80 1016.22 1016.22 1016.80 1017.77 1018.91 1019.70 1019.73 1020.81 1020.84 1020.55 1020.06 1019.42 1017.99 1017.15
1021.08 1021.19 1021.25 1021.17 1021.16 1021.09 1021.07 1021.00 1020.91 1020.71 1020.43 1020.30 1020.12 1020.01 1019.96 1019.76 1019.36 1019.05 1018.60 1018.12 1018.65 1018.54 1018.32 1018.40 1018.61 1018.41 1018.48 1018.43 1018.14 1017.98 1017.75 1017.78 1017.63 1017.78 1019.03 1019.17 1020.18 1020.85 1020.89 1020.86 1020.98 1021.15 1021.12 1020.94 1020.12 1019.33 1018.52
1021.18 1021.32 1021.30 1021.24 1021.23 1021.19 1021.12 1021.00 1020.90 1020.66 1020.47 1020.31 1020.17 1020.01 1019.80 1019.64 1019.45 1019.17 1019.18 1019.37 1019.42 1019.29 1019.28 1018.80 1018.62 1018.44 1018.29 1018.30 1018.62 1018.55 1018.21 1018.90 1019.44 1020.08 1019.92 1020.48 1020.89 1020.91 1020.79 1020.84 1021.04 1021.25 1021.34 1021.28 1020.51 1020.03 1019.51
1021.31 1021.45 1021.37 1021.36 1021.32 1021.24 1021.16 1021.08 1020.91 1020.74 1020.54 1020.32 1020.17 1020.00 1019.73 1019.57 1019.32 1019.19 1019.56 1019.56 1019.06 1018.81 1019.41 1019.15 1018.69 1018.42 1018.40 1018.50 1019.03 1019.16 1019.12 1019.61 1020.23 1020.81 1021.20 1021.27 1021.23 1020.74 1020.75 1020.99 1021.09 1021.44 1021.77 1021.80 1021.67 1020.90 1020.13
1021.51 1021.58 1021.51 1021.45 1021.47 1021.35 1021.27 1021.17 1020.96 1020.81 1020.68 1020.53 1020.33 1020.05 1019.81 1019.61 1019.79 1019.92 1019.64 1019.21 1018.87 1018.83 1019.74 1019.53 1018.79 1018.41 1018.35 1018.56 1019.21 1019.59 1019.53 1020.14 1020.83 1021.52 1021.61 1021.75 1021.27 1021.10 1021.36 1021.66 1021.80 1021.98 1022.15 1022.19 1022.21 1022.21 1022.15
1021.70 1021.72 1021.67 1021.62 1021.57 1021.45 1021.35 1021.25 1021.05 1020.96 1020.82 1020.59 1020.47 1020.29 1020.02 1019.95 1020.42 1020.30 1019.94 1019.21 1018.99 1019.42 1020.32 1019.66 1018.76 1018.26 1018.54 1019.15 1019.68 1020.81 1020.44 1020.84 1021.86 1022.18 1022.62 1022.67 1022.16 1021.88 1021.94 1022.39 1022.28 1022.69 1022.55 1022.74 1022.78 1023.08 1023.13
1021.79 1021.81 1021.78 1021.71 1021.60 1021.53 1021.38 1021.29 1021.17 1021.11 1020.96 1020.72 1020.46 1020.22 1019.98 1020.33 1020.70 1020.25 1019.81 1019.50 1019.88 1020.85 1021.01 1019.89 1019.11 1018.91 1019.32 1019.58 1020.45 1021.66 1021.95 1021.54 1022.41 1022.88 1023.25 1023.48 1022.60 1022.84 1022.91 1022.77 1022.89 1022.99 1023.17 1023.22 1023.24 1023.69 1024.11
1021.96 1021.91 1021.89 1021.80 1021.74 1021.64 1021.47 1021.37 1021.26 1021.16 1021.08 1020.85 1020.54 1020.29 1020.19 1020.25 1020.72 1020.13 1019.88 1020.44 1021.58 1021.86 1021.07 1020.77 1020.00 1019.84 1020.21 1020.64 1021.44 1022.49 1023.29 1023.61 1024.49 1024.79 1025.02 1024.55 1024.24 1023.86 1023.73 1023.64 1023.73 1024.20 1024.54 1024.83 1024.89 1024.85 1024.70
1022.09 1022.04 1021.99 1021.92 1021.84 1021.72 1021.55 1021.43 1021.35 1021.25 1021.11 1020.86 1020.58 1020.51 1020.45 1020.30 1020.34 1020.17 1020.64 1021.71 1022.89 1022.75 1021.83 1021.15 1020.69 1020.77 1021.40 1021.75 1022.74 1023.43 1024.11 1025.02 1025.46 1025.80 1026.19 1026.09 1025.58 1025.59 1025.46 1025.43 1025.44 1025.25 1025.28 1025.71 1025.82 1025.90 1025.63
1022.25 1022.19 1022.11 1022.11 1021.95 1021.78 1021.66 1021.53 1021.43 1021.29 1021.16 1020.87 1020.37 1020.94 1020.91 1020.44 1020.17 1020.39 1021.48 1023.45 1024.19 1023.25 1022.59 1021.92 1021.55 1021.86 1022.51 1022.74 1023.33 1024.28 1025.31 1025.94 1026.17 1026.19 1026.73 1026.94 1026.99 1026.75 1026.65 1026.64 1026.81 1026.52 1025.96 1025.60 1025.99 1026.18 1026.45
1022.40 1022.36 1022.37 1022.21 1022.00 1021.90 1021.73 1021.60 1021.48 1021.38 1021.17 1020.94 1021.39 1021.56 1021.10 1020.09 1020.23 1021.06 1022.57 1024.02 1023.95 1023.25 1022.66 1022.29 1022.35 1022.64 1023.56 1023.85 1024.36 1024.86 1025.81 1026.47 1026.47 1026.55 1026.73 1027.20 1027.56 1027.87 1027.82 1027.80 1027.77 1027.65 1026.65 1026.21 1026.45 1026.64 1026.48
1022.54 1022.53 1022.43 1022.17 1022.04 1021.92 1021.76 1021.65 1021.53 1021.31 1021.13 1021.16 1021.71 1021.98 1020.68 1020.18 1020.55 1021.89 1024.17 1024.15 1023.71 1023.02 1022.64 1022.71 1023.14 1023.80 1024.51 1024.99 1025.37 1025.86 1026.58 1026.63 1026.58 1026.73 1026.90 1027.43 1028.14 1029.46 1029.37 1030.24 1030.47 1028.78 1027.96 1027.21 1026.45 1026.78 1026.95
1022.74 1022.58 1022.37 1022.18 1022.02 1021.91 1021.84 1021.70 1021.53 1021.32 1021.04 1021.17 1022.11 1022.40 1020.95 1020.68 1022.33 1023.74 1024.50 1023.94 1023.53 1023.22 1022.83 1023.04 1023.66 1024.43 1025.24 1025.74 1026.46 1026.56 1026.86 1026.89 1026.77 1026.94 1027.37 1027.80 1028.92 1030.44 1031.53 1031.22 1030.86 1030.66 1029.56 1028.21 1027.25 1028.31 1028.45
1022.91 1022.67 1022.40 1022.20 1022.04 1021.93 1021.82 1021.70 1021.62 1021.42 1021.28 1021.97 1023.03 1022.76 1021.38 1021.17 1023.90 1024.99 1024.55 1024.30 1023.99 1023.65 1023.53 1023.66 1024.28 1024.96 1025.70 1026.44 1027.12 1027.23 1027.15 1026.96 1026.95 1027.21 1027.60 1028.33 1029.74 1031.34 1032.02 1032.13 1031.93 1031.28 1030.40 1029.18 1028.47 1028.86 1030.17
1023.02 1022.76 1022.50 1022.25 1022.05 1021.88 1021.74 1021.76 1021.72 1021.63 1021.55 1021.92 1023.27 1023.84 1023.54 1023.58 1024.38 1024.92 1024.97 1024.72 1024.33 1023.86 1023.97 1024.08 1024.71 1025.44 1026.38 1027.03 1027.17 1027.73 1027.46 1027.29 1027.36 1027.62 1028.01 1028.70 1030.87 1031.74 1033.59 1034.53 1034.19 1033.35 1031.75 1030.80 1030.00 1030.62 1031.37
1023.17 1022.87 1022.56 1022.28 1022.05 1021.88 1021.80 1021.84 1021.76 1021.65 1021.54 1022.02 1023.66 1024.67 1024.43 1025.75 1025.39 1024.90 1024.74 1024.79 1024.65 1024.38 1024.41 1024.66 1025.23 1025.76 1026.55 1027.45 1027.74 1027.95 1027.81 1027.87 1027.92 1028.24 1028.88 1030.61 1033.16 1033.60 1034.39 1034.25 1033.83 1033.48 1033.11 1032.64 1032.25 1032.66 1032.86
1023.30 1022.95 1022.63 1022.35 1022.09 1021.93 1021.90 1021.82 1021.68 1021.45 1021.26 1021.95 1023.47 1024.02 1024.69 1025.20 1025.03 1025.22 1025.43 1025.34 1025.06 1024.91 1024.99 1025.37 1025.78 1026.19 1026.49 1027.11 1027.52 1028.14 1028.09 1028.24 1028.55 1029.14 1029.88 1031.08 1033.54 1034.40 1034.64 1033.86 1033.08 1033.24 1033.51 1033.49 1033.33 1033.66 1033.89
1023.49 1023.15 1022.85 1022.54 1022.29 1022.16 1022.03 1021.89 1021.67 1021.39 1021.31 1022.13 1022.79 1023.09 1023.86 1025.69 1025.75 1025.82 1025.80 1025.44 1025.40 1025.26 1025.69 1025.59 1025.86 1026.38 1026.72 1027.10 1027.30 1027.63 1028.00 1028.32 1028.58 1029.20 1030.11 1031.25 1032.81 1034.01 1034.08 1033.68 1033.13 1033.52 1034.05 1034.11 1034.01 1034.13 1034.43
1023.84 1023.52 1023.15 1022.81 1022.62 1022.46 1022.27 1022.05 1021.76 1021.42 1021.30 1022.18 1022.77 1023.61 1025.02 1026.52 1026.05 1025.95 1025.79 1025.64 1025.71 1025.71 1025.89 1026.04 1026.04 1026.29 1026.67 1026.81 1027.62 1027.93 1028.22 1028.71 1028.98 1029.36 1029.87 1031.11 1032.34 1032.98 1033.62 1033.78 1034.22 1034.09 1033.73 1034.06 1034.31 1034.30 1034.02
1024.33 1023.90 1023.54 1023.22 1022.99 1022.78 1022.54 1022.29 1021.92 1021.55 1021.49 1021.92 1022.54 1023.45 1025.22 1027.08 1026.65 1026.33 1026.05 1026.07 1026.18 1026.27 1026.31 1026.31 1026.26 1026.37 1026.58 1027.21 1028.43 1029.13 1029.68 1029.95 1029.70 1029.82 1030.25 1030.77 1031.90 1033.26 1034.12 1034.72 1034.86 1034.09 1033.62 1033.77 1033.99 1034.17 1033.78
1024.77 1024.34 1024.05 1023.72 1023.35 1023.07 1022.77 1022.49 1022.14 1021.79 1021.54 1022.14 1022.88 1023.20 1024.83 1026.77 1027.31 1026.87 1026.39 1026.33 1026.76 1027.03 1026.87 1026.64 1026.38 1026.42 1026.88 1028.04 1029.22 1030.06 1030.83 1030.82 1031.16 1030.85 1030.73 1031.09 1031.85 1033.28 1034.74 1035.50 1035.45 1034.39 1033.27 1032.87 1033.12 1033.36 1032.96
1025.29 1024.96 1024.60 1024.29 1023.84 1023.49 1023.20 1022.89 1022.51 1022.20 1021.97 1022.23 1023.20 1023.36 1024.74 1027.31 1027.30 1026.61 1026.49 1026.66 1026.57 1027.09 1027.50 1027.22 1027.02 1027.10 1027.50 1028.95 1030.37 1031.31 1031.87 1031.81 1032.48 1033.06 1033.17 1033.11 1033.77 1034.77 1035.24 1035.42 1034.86 1033.69 1032.77 1032.21 1032.79 1033.44 1032.35
1025.84 1025.57 1025.21 1024.90 1024.46 1024.04 1023.75 1023.36 1023.01 1022.72 1022.44 1022.65 1024.15 1023.73 1024.44 1027.12 1027.38 1026.52 1026.20 1026.22 1026.36 1026.93 1027.64 1027.70 1027.97 1028.16 1028.81 1029.75 1030.92 1031.82 1032.21 1032.86 1033.29 1033.58 1034.25 1034.52 1034.82 1035.23 1035.32 1035.48 1034.60 1033.03 1032.32 1032.28 1032.43 1031.80 1031.62
1026.38 1026.10 1025.82 1025.48 1025.12 1024.73 1024.34 1024.00 1023.70 1023.45 1023.29 1023.30 1024.41 1024.43 1024.70 1026.32 1027.35 1026.65 1026.09 1025.59 1025.62 1026.02 1026.99 1027.71 1028.05 1028.32 1028.84 1029.82 1030.73 1031.53 1032.50 1032.98 1033.31 1033.65 1033.52 1034.10 1034.19 1034.46 1035.14 1034.65 1033.61 1032.65 1032.18 1031.61 1031.41 1031.29 1030.86
Wind_Speed
11 8 7 4 3 2 2 3 4 5 6 6 6 7 7 8 10 10 10 9 10 11 10 9 9 9 3 6 3 8 13 13 7 5 4 4 5 5 2 4 8 3 6 10 9 5 7
10 8 6 4 3 2 3 4 4 5 5 5 6 7 8 10 10 11 10 9 9 9 8 6 6 7 1 8 6 8 10 10 8 5 6 4 2 4 1 3 2 5 7 8 8 7 4
10 8 6 3 2 2 2 3 4 4 4 5 6 7 9 10 10 10 9 9 8 7 6 5 5 3 13 4 4 8 9 5 4 3 4 5 2 6 3 8 3 7 7 9 5 5 4
10 8 7 4 3 2 2 3 3 4 5 6 7 8 7 8 8 8 8 8 9 7 8 3 5 1 5 2 3 10 9 9 8 5 1 6 0 2 1 4 8 7 4 5 7 10 6
9 8 6 4 3 2 2 3 3 4 5 7 8 7 8 9 9 8 8 9 9 9 9 7 1 5 3 3 8 8 4 7 7 8 6 1 4 5 11 4 6 10 5 9 10 9 13
9 7 6 5 4 3 3 3 3 4 5 7 8 8 7 9 9 9 11 7 9 8 3 1 2 7 5 3 4 7 10 8 7 8 8 12 8 6 6 9 2 6 4 6 4 10 16
9 7 6 6 4 4 3 3 3 5 7 7 8 8 7 8 9 10 7 5 7 8 11 7 2 5 2 3 6 9 5 7 9 8 6 7 11 5 4 2 3 2 2 3 5 10 13
8 7 6 6 5 4 2 3 4 6 7 7 7 8 8 7 8 9 3 5 1 4 5 4 4 2 2 2 5 10 7 7 10 9 8 8 7 2 2 1 2 2 3 5 4 11 8
8 7 7 6 5 4 3 3 5 6 8 10 9 8 8 7 8 4 2 3 3 5 6 1 1 1 1 5 1 4 6 4 6 10 6 4 3 3 5 6 7 3 5 5 6 8 0
9 7 7 6 4 3 3 4 5 6 8 10 10 11 10 9 6 4 3 7 5 4 6 1 2 2 2 2 2 4 6 3 8 5 6 2 6 5 8 6 6 4 6 6 8 6 4
9 7 7 6 4 3 2 4 5 6 9 11 11 10 10 3 2 3 4 6 5 6 6 2 1 4 3 4 2 12 6 7 5 4 6 6 5 7 8 4 6 1 4 6 2 2 2
9 8 6 5 4 2 2 4 6 7 9 11 12 11 10 3 2 3 5 5 6 9 2 0 1 2 2 3 4 4 9 6 3 5 5 6 4 7 5 6 3 5 6 5 3 4 1
8 8 6 6 4 2 3 4 6 7 9 11 12 14 6 2 2 5 4 5 7 8 5 3 1 4 3 3 5 4 11 14 6 6 6 6 11 6 13 6 6 11 4 4 5 3 4
8 7 6 6 5 3 3 4 6 7 9 11 11 6 5 1 1 3 4 8 10 4 4 4 3 5 4 6 6 6 4 5 7 4 1 4 7 10 14 4 6 6 1 4 3 2 4
8 7 6 5 4 4 3 4 6 8 9 10 8 3 3 3 1 4 7 8 6 3 4 6 6 3 4 5 5 4 4 3 3 6 2 3 1 4 13 7 7 8 2 1 2 2 1
7 6 4 4 4 3 4 5 6 7 7 9 3 2 4 2 3 6 8 4 2 4 5 4 3 5 3 7 4 4 3 4 5 5 2 2 1 8 8 8 9 4 6 2 2 2 5
7 5 4 5 4 4 4 5 6 6 6 4 4 5 5 3 5 8 5 3 3 2 3 5 5 5 5 3 4 4 5 1 4 6 3 2 3 5 7 8 10 8 5 5 3 3 2
6 5 5 5 5 4 4 4 5 7 8 6 3 5 5 3 7 2 3 3 4 4 5 3 5 6 4 5 6 4 2 5 3 3 2 2 4 2 4 12 7 12 10 5 2 3 3
6 6 6 6 5 4 4 5 6 8 9 3 3 1 3 6 5 3 3 3 4 5 5 4 3 5 6 3 4 4 3 1 6 4 3 4 3 3 3 7 7 7 16 11 5 3 10
7 7 7 6 6 5 6 7 6 5 5 5 5 4 6 6 2 7 3 1 3 2 4 4 4 6 6 7 6 2 4 4 3 4 14 6 5 6 7 7 3 6 18 19 10 5 3
7 8 7 7 6 5 6 6 4 4 5 4 4 3 5 1 4 6 6 3 3 3 3 7 6 4 6 3 2 3 3 6 6 8 5 7 4 6 2 7 10 10 13 15 16 10 5
8 9 9 8 7 6 6 6 6 8 5 5 5 5 4 2 3 7 5 2 4 2 3 2 4 4 5 4 5 2 2 1 2 4 3 3 6 2 2 9 13 12 13 9 8 9 4
10 10 10 10 9 8 7 6 7 8 5 3 2 2 7 5 3 6 1 2 3 6 5 4 4 5 7 2 7 7 3 1 3 5 3 4 7 5 5 10 3 6 5 5 3 2 5
10 10 11 11 10 9 8 8 8 9 4 4 1 5 7 2 4 4 4 4 5 3 4 2 5 5 2 7 5 5 5 3 5 4 4 5 6 4 2 1 3 7 3 4 3 4 4
11 11 11 11 11 10 10 8 8 8 5 4 1 5 5 3 1 7 5 5 5 4 4 3 1 3 2 4 3 1 2 4 5 3 8 3 5 3 4 2 3 2 5 2 3 5 4
12 12 12 11 11 11 10 11 12 10 7 5 2 3 6 7 5 4 2 2 3 2 2 0 2 1 4 3 3 2 1 2 4 7 4 6 5 6 3 4 3 7 6 4 5 2 3
12 12 12 13 13 12 11 11 11 10 10 5 3 4 7 6 4 2 3 2 2 3 3 2 1 2 4 2 3 2 1 1 0 1 4 4 4 4 2 2 4 7 7 2 2 6 6
12 12 12 12 11 11 13 13 13 12 13 6 2 2 7 5 5 3 2 2 3 3 4 4 5 5 3 4 4 3 3 2 3 4 5 4 3 1 2 4 4 1 3 6 7 5 4
11 12 13 12 12 13 13 14 14 13 12 7 5 4 3 7 6 2 2 1 3 6 6 2 5 4 5 4 1 3 3 2 3 2 2 4 7 5 6 7 7 5 5 5 3 5 5
Wind_Direction
141 136 132 144 131 82 30 9 7 359 349 349 341 332 329 319 308 311 308 303 311 313 305 294 304 322 304 52 26 301 347 339 355 337 352 11 42 6 351 302 335 197 349 322 296 312 320
136 139 131 138 111 68 25 6 1 348 351 347 336 324 326 308 304 308 312 318 317 317 316 310 313 312 89 74 304 327 351 346 351 4 338 13 13 274 312 326 357 297 298 295 314 321 308
138 142 133 136 112 73 32 4 359 354 352 347 333 329 310 308 312 313 316 321 323 334 345 322 310 313 66 83 337 342 342 296 286 325 327 316 126 65 335 325 335 309 339 334 349 347 301
143 141 133 137 100 56 31 24 16 7 356 346 337 324 326 332 326 320 327 323 320 318 322 299 323 25 94 305 321 8 340 333 330 306 221 265 13 82 86 312 353 347 28 359 306 355 296
139 136 129 117 88 53 45 44 25 12 358 341 334 336 350 348 346 336 323 309 302 312 289 272 104 92 59 314 15 323 40 326 329 337 28 318 77 70 12 30 8 27 343 350 338 2 353
136 132 126 112 86 63 65 52 26 1 357 346 341 342 352 346 352 348 316 286 298 335 42 327 21 53 6 33 332 332 339 10 19 347 15 27 44 67 22 42 41 318 359 332 337 319 351
135 130 119 100 82 69 72 54 18 0 359 351 341 342 354 354 5 3 2 12 22 4 36 111 125 107 51 286 42 343 345 29 7 43 38 13 66 62 22 75 210 252 342 318 296 342 346
127 121 107 93 82 75 63 49 15 7 2 2 353 349 5 353 347 337 70 74 142 193 61 59 99 77 125 133 33 339 26 58 34 32 2 31 70 208 184 165 111 55 359 331 304 350 354
120 111 95 84 74 69 50 33 18 19 18 20 11 357 359 352 342 38 100 52 274 103 102 310 130 21 11 102 133 327 34 19 62 22 25 101 233 322 346 8 4 18 30 342 327 333 73
113 102 90 82 72 72 47 22 17 17 17 13 14 15 7 343 32 317 11 319 3 76 79 127 258 349 43 103 66 42 344 89 15 27 351 352 330 15 70 44 16 11 345 16 358 35 325
109 98 89 82 70 58 54 15 9 2 1 3 359 3 347 79 248 57 306 341 360 52 65 177 335 170 73 109 183 349 344 50 27 3 62 290 7 46 49 9 20 340 348 354 283 345 13
104 96 87 79 69 53 48 18 1 357 356 352 353 355 357 77 42 259 321 8 45 46 267 266 146 55 85 1 79 71 34 45 64 22 20 32 349 41 354 330 21 332 358 320 331 124 150
102 93 83 76 69 53 52 16 358 350 349 351 351 347 358 88 206 307 6 41 44 95 260 49 355 54 74 27 74 59 57 50 48 22 359 340 44 351 20 354 336 19 14 341 355 40 218
98 89 80 73 65 52 43 11 355 344 352 344 326 332 326 169 258 26 51 54 72 283 20 340 23 23 80 16 11 24 63 50 18 76 48 25 352 354 3 354 327 306 173 163 254 75 271
89 80 72 66 60 43 30 13 353 354 358 345 354 13 352 272 219 69 72 56 184 333 345 336 327 138 20 352 111 94 65 39 31 2 81 27 94 332 23 0 44 324 302 296 220 122 195
80 67 62 64 55 44 31 14 4 4 357 16 56 27 293 266 112 63 70 112 64 11 336 341 70 43 70 354 52 51 82 299 340 14 110 193 205 12 13 8 345 284 287 94 21 183 238
66 57 42 47 45 30 25 15 12 1 345 356 55 54 263 354 66 48 107 129 137 350 49 52 33 62 60 26 42 33 17 187 14 335 58 70 134 347 40 14 15 345 357 304 192 329 275
52 37 37 40 44 31 22 30 35 15 345 72 82 56 295 68 53 35 53 30 70 16 360 88 72 62 59 9 25 45 88 6 15 335 355 282 103 86 152 73 10 24 356 311 291 13 351
41 29 32 35 34 27 30 60 67 36 38 106 86 241 315 80 97 10 50 70 72 26 30 37 88 79 39 54 93 31 19 116 41 22 19 328 48 153 187 358 350 359 14 15 99 134 11
34 30 29 26 21 29 59 75 73 51 36 87 80 43 337 44 105 123 118 105 103 322 42 42 109 82 68 16 41 31 345 31 56 51 54 78 22 120 139 193 249 25 28 25 37 45 77
32 28 26 20 18 44 67 67 52 17 341 99 48 246 187 324 346 79 83 82 83 40 64 32 41 107 135 139 80 9 356 358 38 21 53 90 63 95 148 154 96 65 41 39 41 31 58
30 27 25 26 36 56 58 42 8 351 11 79 121 122 19 91 34 63 20 52 106 33 78 32 76 117 95 122 163 171 326 78 234 6 65 51 152 150 242 139 82 53 31 24 40 37 29
30 28 28 36 46 55 50 23 351 346 48 97 305 57 99 309 62 78 296 106 27 125 30 78 118 100 86 86 145 168 177 332 297 149 116 120 144 180 214 226 293 26 326 337 328 338 170
29 28 32 38 43 42 36 16 351 341 114 126 198 99 83 320 99 147 117 96 88 60 124 44 84 98 195 96 71 31 8 28 63 42 133 136 146 210 138 134 40 242 242 214 259 270 311
28 29 30 38 39 31 22 8 352 27 148 86 135 98 100 63 261 38 90 124 96 69 87 100 60 177 121 111 94 181 5 356 318 38 29 165 175 54 104 46 241 266 299 137 189 271 221
25 29 27 29 34 25 17 17 19 15 42 86 49 102 94 111 322 274 98 106 142 145 359 139 282 205 86 85 90 110 192 191 332 335 24 38 67 107 60 108 182 239 280 295 125 311 315
26 24 29 23 26 23 26 26 26 34 32 92 29 76 86 100 289 62 102 180 118 104 143 336 26 30 70 82 71 102 301 67 175 46 317 344 5 93 98 105 286 247 271 275 74 251 297
28 21 27 26 25 30 32 31 32 35 34 76 264 2 115 112 301 41 72 71 31 82 134 257 44 338 39 59 108 235 107 244 72 211 175 153 110 281 54 66 299 325 349 105 222 286 266
30 26 23 29 25 28 31 33 41 38 50 59 62 352 73 99 196 282 335 319 174 185 139 37 172 189 195 85 65 110 74 48 155 275 75 347 171 177 146 208 236 250 202 253 229 253 283